Notices

What's New in latest Release from April 7th, 2021:

- Updated Glossary, including Speed of Maximum Gust, and Total Hourly Precipitation

- Updated national and regional climate services offices contacts and prices information

- Addition of station inventory lists for 1981-2010, 1971-2000, and 1961-1990 Normals.

If you haven't already, please take our survey and provide feedback about our website: https://eccc.sondage-survey.ca/f/LanguageSelection.aspx?s=442ca660-fcf1-47c0-95a9-59707d6fd709

Hourly Data Report for November 19, 2019

EUREKA CLIMATE
NUNAVUT
Current Station Operator: ECCC - MSC

79°59'21.000" N
85°56'02.000" W
10.00 m
2401199
71613
NEK

Download Data

Hourly Data (November 2019)
Hourly Data Report for November 19, 2019
TIME
LST
Temp Definition
°C
Dew Point Definition
°C
Rel Hum Definition
%
Precip. Amount Definition
mm

Wind Dir Definition
10's deg

Wind Spd Definition
km/h
Visibility Definition
km
Stn Press Definition
kPa
Hmdx Definition


Wind Chill Definition


Weather Definition


00:00 -22.8 -24.9 83 0.0 13 1   100.85   -24 LegendNANA
01:00 -23.4 -25.5 83 0.0 11 7   100.86   -30 LegendNANA
02:00 -22.8 -24.9 84 0.0 11 8   100.87   -30 LegendNANA
03:00 -23.0 -25.0 84 0.0 11 6   100.90   -28 LegendNANA
04:00 -22.6 -24.5 84 0.0 10 3   100.91   -25 LegendNANA
05:00 -22.5 -24.2 86 0.0 7 6   100.91   -28 LegendNANA
06:00 -22.9 -24.7 85 0.0 1 8   100.94   -30 LegendNANA
07:00 -23.1 -25.0 85 0.0 36 8   100.94   -30 LegendNANA
08:00 -23.0 -25.0 84 0.0 2 5   100.96   -28 LegendNANA
09:00 -23.2 -25.2 84 0.0 2 5   100.96   -28 LegendNANA
10:00 -23.7 -25.7 83 0.0 1 9   100.97   -31 LegendNANA
11:00 -24.2 -26.2 83 0.0 2 8   100.97   -31 LegendNANA
12:00 -24.6 -26.8 82 0.0 1 8   101.02   -32 LegendNANA
13:00 -25.0 -27.1 82 0.0 2 8   101.05   -32 LegendNANA
14:00 -25.8 -28.1 81 0.0 2 10   101.08   -34 LegendNANA
15:00 -25.7 -28.0 81 0.0 2 8   101.13   -33 LegendNANA
16:00 -26.6 -28.9 80 0.0 2 9   101.15   -35 LegendNANA
17:00 -25.8 -28.1 81 0.0 2 7   101.18   -32 LegendNANA
18:00 -24.9 -27.1 82 0.0 5 4   101.21   -29 LegendNANA
19:00 -24.0 -26.1 83 0.2 13 6   101.22   -30 LegendNANA
20:00 -24.0 -26.1 83 0.0 13 9   101.27   -31 LegendNANA
21:00 -23.5 -25.5 83 0.0 13 6   101.29   -29 LegendNANA
22:00 -23.4 -25.5 83 0.0 11 6   101.30   -29 LegendNANA
23:00 -23.6 -25.7 83 0.0 11 5   101.35   -28 LegendNANA

Notes on Data Quality.

Legend

  • E = Estimated
  • M = Missing
  • NA = Not Available*
  • [empty] = Indicates an unobserved value
Date modified: